Ashland, WI

11:37 AM CDT on March 28, 2017 (GMT -0500)
Kennedy Memorial

Weather History for KASX - October, 2012

Change the Weather History Date:

Friday, October 19, 2012

  Actual Average Record
Temperature  
Mean Temperature 43 °F -  
Max Temperature 53 °F 53 °F 81 °F (2000)
Min Temperature 35 °F 31 °F 15 °F (1972)
Degree Days  
Heating Degree Days 22    
Moisture  
Dew Point 40 °F    
Average Humidity 89    
Maximum Humidity 100    
Minimum Humidity 56    
Precipitation  
Precipitation 0.00 in - - ()
Sea Level Pressure  
Sea Level Pressure 29.62 in    
Wind  
Wind Speed 3 mph (NE)    
Max Wind Speed 12 mph    
Max Gust Speed -    
Visibility 8 miles    
Events Fog , Rain    
Averages and records for this station are not official NWS values.
T = Trace of Precipitation, MM = Missing Value Source: NWS Daily Summary

Daily Weather History Graph

Daily Weather History Graph

Search for Another Location

Airport or City:

Trip Planner

Search our weather history database for the weather conditions in past years. The results will help you decide how hot, cold, wet, or windy it might be!

Date:

Astronomy

Oct. 19, 2012 Rise Set
Actual Time 7:27 AM CDT 6:08 PM CDT
Civil Twilight 6:56 AM CDT 6:39 PM CDT
Nautical Twilight 6:21 AM CDT 7:14 PM CDT
Astronomical Twilight 5:46 AM CDT 7:49 PM CDT
Moon 12:23 PM CDT (10/19) 9:35 PM CDT (10/19)
Length of Visible Light 11h 42m
Length of Day
10h 41m
Waxing Crescent, 24% of the Moon is Illuminated
Oct 19
Waxing Crescent
Oct 21
First Quarter
Oct 29
Full
Nov 6
Last Quarter
Nov 13
New

Hourly Weather History & Observations

Time (CDT) Temp. Windchill Dew Point Humidity Pressure Visibility Wind Dir Wind Speed Gust Speed Precip Events Conditions
12:42 AM 46.4 °F - 46.4 °F 100% 29.43 in 5.0 mi Calm Calm - 0.00 in   Overcast
12:53 AM 46.9 °F - 46.0 °F 97% 29.44 in 5.0 mi Calm Calm - 0.00 in   Overcast
1:53 AM 46.9 °F - 45.0 °F 93% 29.47 in 6.0 mi East 3.5 mph - 0.00 in Rain Light Rain
2:24 AM 46.4 °F - 44.6 °F 93% 29.46 in 7.0 mi Calm Calm - 0.00 in Rain Light Rain
2:53 AM 46.0 °F 44.8 °F 44.1 °F 93% 29.48 in 10.0 mi ESE 3.5 mph - 0.00 in   Overcast
3:53 AM 45.0 °F - 44.1 °F 97% 29.50 in 10.0 mi Calm Calm - N/A   Overcast
4:50 AM 46.4 °F 43.5 °F 44.6 °F 93% 29.50 in 9.0 mi ENE 5.8 mph - N/A   Overcast
4:53 AM 46.0 °F 43.1 °F 44.1 °F 93% 29.52 in 9.0 mi ENE 5.8 mph - N/A   Overcast
5:02 AM 44.6 °F 43.1 °F 44.6 °F 100% 29.51 in 5.0 mi East 3.5 mph - N/A   Overcast
5:14 AM 44.6 °F 43.1 °F 44.6 °F 100% 29.52 in 10.0 mi ENE 3.5 mph - N/A   Overcast
5:29 AM 44.6 °F 42.2 °F 44.6 °F 100% 29.52 in 10.0 mi ENE 4.6 mph - N/A   Overcast
5:53 AM 45.0 °F 41.8 °F 43.0 °F 93% 29.55 in 10.0 mi ENE 5.8 mph - N/A   Overcast
6:06 AM 44.6 °F - 42.8 °F 93% 29.54 in 10.0 mi Calm Calm - N/A   Overcast
6:53 AM 45.0 °F 41.8 °F 43.0 °F 93% 29.57 in 10.0 mi East 5.8 mph - N/A   Overcast
7:53 AM 44.1 °F - 43.0 °F 96% 29.59 in 10.0 mi Calm Calm - N/A   Overcast
8:53 AM 46.0 °F 43.1 °F 43.0 °F 89% 29.61 in 10.0 mi East 5.8 mph - N/A   Overcast
9:53 AM 46.9 °F - 43.0 °F 86% 29.63 in 10.0 mi ENE 6.9 mph - N/A   Overcast
10:53 AM 48.0 °F - 42.1 °F 80% 29.64 in 10.0 mi North 5.8 mph - N/A   Mostly Cloudy
11:53 AM 48.0 °F - 41.0 °F 77% 29.65 in 10.0 mi NNE 8.1 mph - N/A   Overcast
12:53 PM 50.0 °F - 42.1 °F 74% 29.66 in 10.0 mi North 9.2 mph - N/A   Overcast
1:53 PM 50.0 °F - 39.9 °F 68% 29.66 in 10.0 mi NNE 10.4 mph - N/A   Mostly Cloudy
2:53 PM 51.1 °F - 36.0 °F 56% 29.67 in 10.0 mi North 11.5 mph - N/A   Scattered Clouds
3:53 PM 51.1 °F - 37.0 °F 59% 29.68 in 10.0 mi North 9.2 mph - N/A   Mostly Cloudy
4:53 PM 50.0 °F - 37.9 °F 63% 29.69 in 10.0 mi NNE 5.8 mph - N/A   Partly Cloudy
5:53 PM 45.0 °F 43.5 °F 36.0 °F 71% 29.70 in 10.0 mi NE 3.5 mph - N/A   Clear
6:53 PM 39.9 °F - 34.0 °F 79% 29.72 in 10.0 mi Calm Calm - N/A   Clear
7:53 PM 37.9 °F 35.5 °F 37.0 °F 97% 29.73 in 10.0 mi North 3.5 mph - N/A   Partly Cloudy
8:53 PM 37.0 °F - 35.1 °F 93% 29.74 in 8.0 mi Calm Calm - N/A   Partly Cloudy
9:10 PM 35.6 °F - 35.6 °F 100% 29.71 in 1.2 mi Calm Calm - N/A   Clear
9:19 PM 35.6 °F - 33.8 °F 93% 29.71 in 0.5 mi Calm Calm - N/A Fog Fog
9:29 PM 35.6 °F - 35.6 °F 100% 29.72 in 2.0 mi Calm Calm - N/A   Clear
9:40 PM 35.6 °F - 33.8 °F 93% 29.71 in 1.2 mi Calm Calm - N/A   Partly Cloudy
9:43 PM 35.6 °F - 33.8 °F 93% 29.72 in 0.8 mi Calm Calm - N/A   Mist
9:53 PM 35.1 °F - 33.1 °F 92% 29.74 in 0.5 mi Calm Calm - N/A Fog Fog
10:02 PM 35.6 °F - 35.6 °F 100% 29.72 in 2.0 mi Calm Calm - N/A   Mostly Cloudy
10:11 PM 37.4 °F - 35.6 °F 93% 29.72 in 6.0 mi Calm Calm - N/A   Overcast
10:53 PM 39.9 °F 36.7 °F 39.0 °F 97% 29.74 in 10.0 mi West 4.6 mph - N/A   Overcast
11:17 PM 39.2 °F 37.0 °F 39.2 °F 100% 29.72 in 9.0 mi West 3.5 mph - N/A   Overcast
11:53 PM 39.9 °F 37.8 °F 39.0 °F 97% 29.74 in 10.0 mi West 3.5 mph - N/A   Overcast